Providence, RI

7:26 PM EDT on July 23, 2017 (GMT -0400)
Green State

Weather History for KPVD - August, 2014

Change the Weather History Date:

Wednesday, August 20, 2014

  Actual Average Record
Temperature  
Mean Temperature 70 °F 72 °F  
Max Temperature 83 °F 81 °F 97 °F (1937)
Min Temperature 57 °F 63 °F 47 °F (1981)
Degree Days  
Heating Degree Days 0 0  
Month to date heating degree days 0 0  
Since 1 June heating degree days 13 46  
Since 1 July heating degree days 0 3  
Cooling Degree Days 5 7  
Month to date cooling degree days 117 163  
Year to date cooling degree days 520 587  
Since 1 June cooling degree days 509 561  
Growing Degree Days 20 (Base 50)    
Moisture  
Dew Point 58 °F    
Average Humidity 73    
Maximum Humidity 100    
Minimum Humidity 45    
Precipitation  
Precipitation 0.00 in 0.12 in 1.70 in (2001)
Month to date precipitation 2.45 2.36  
Year to date precipitation 31.20 29.36  
Snow  
Snow 0.00 in 0.00 in 0.00 in (2002)
Month to date snowfall 0.0 0.0  
Since 1 June snowfall 0.0 0.0  
Since 1 July snowfall 0.0 0.0  
Snow Depth 0.00 in    
Sea Level Pressure  
Sea Level Pressure 30.01 in    
Wind  
Wind Speed 4 mph (SW)    
Max Wind Speed 16 mph    
Max Gust Speed 19 mph    
Visibility 8 miles    
Events      
T = Trace of Precipitation, MM = Missing Value Source: NWS Daily Summary

Daily Weather History Graph

Daily Weather History Graph

Search for Another Location

Airport or City:

Trip Planner

Search our weather history database for the weather conditions in past years. The results will help you decide how hot, cold, wet, or windy it might be!

Date:

Astronomy

Aug. 20, 2014 Rise Set
Actual Time 5:59 AM EDT 7:38 PM EDT
Civil Twilight 5:29 AM EDT 8:07 PM EDT
Nautical Twilight 4:54 AM EDT 8:43 PM EDT
Astronomical Twilight 4:15 AM EDT 9:21 PM EDT
Moon 1:35 AM EDT (8/20) 4:22 PM EDT (8/20)
Length of Visible Light 14h 37m
Length of Day
13h 38m
Waning Crescent, 21% of the Moon is Illuminated
Aug 20
Waning Crescent
Aug 25
New
Sep 2
First Quarter
Sep 8
Full
Sep 15
Last Quarter

Hourly Weather History & Observations

Time (EDT) Temp. Heat Index Dew Point Humidity Pressure Visibility Wind Dir Wind Speed Gust Speed Precip Events Conditions
1:51 AM 61.0 °F - 57.0 °F 87% 29.97 in 10.0 mi West 3.5 mph - N/A   Clear
2:51 AM 59.0 °F - 55.9 °F 90% 29.96 in 10.0 mi West 3.5 mph - N/A   Clear
3:51 AM 59.0 °F - 55.9 °F 90% 29.97 in 10.0 mi West 4.6 mph - N/A   Clear
4:34 AM 57.9 °F - 57.0 °F 97% 29.98 in 6.0 mi West 4.6 mph - N/A   Scattered Clouds
4:41 AM 57.9 °F - 57.0 °F 97% 29.98 in 2.0 mi West 3.5 mph - N/A   Mostly Cloudy
4:48 AM 57.2 °F - 57.2 °F 100% 29.98 in 1.0 mi Calm Calm - N/A   Mostly Cloudy
4:51 AM 57.9 °F - 57.0 °F 97% 29.98 in 1.0 mi WSW 3.5 mph - N/A   Mostly Cloudy
5:02 AM 57.9 °F - 57.0 °F 97% 29.99 in 3.0 mi West 4.6 mph - N/A   Mostly Cloudy
5:27 AM 57.2 °F - 57.2 °F 100% 29.99 in 4.0 mi Calm Calm - N/A   Scattered Clouds
5:51 AM 57.0 °F - 55.9 °F 96% 29.99 in 7.0 mi West 3.5 mph - N/A   Partly Cloudy
6:51 AM 60.1 °F - 57.9 °F 93% 30.01 in 10.0 mi NW 4.6 mph - N/A   Scattered Clouds
7:51 AM 64.9 °F - 60.1 °F 84% 30.01 in 10.0 mi West 3.5 mph - N/A   Mostly Cloudy
8:51 AM 72.0 °F - 60.1 °F 66% 30.01 in 10.0 mi Variable 3.5 mph - N/A   Mostly Cloudy
9:51 AM 75.0 °F - 61.0 °F 62% 30.01 in 10.0 mi Variable 4.6 mph - N/A   Mostly Cloudy
10:51 AM 77.0 °F - 55.9 °F 48% 30.02 in 10.0 mi Calm Calm - N/A   Mostly Cloudy
11:51 AM 78.1 °F - 55.9 °F 46% 30.02 in 10.0 mi NE 4.6 mph - N/A   Scattered Clouds
12:51 PM 80.1 °F 80.4 °F 57.0 °F 45% 30.01 in 10.0 mi ESE 5.8 mph - N/A   Partly Cloudy
1:51 PM 80.1 °F 80.6 °F 57.9 °F 47% 30.00 in 10.0 mi South 6.9 mph - N/A   Partly Cloudy
2:51 PM 78.1 °F - 59.0 °F 52% 29.99 in 10.0 mi South 9.2 mph - N/A   Scattered Clouds
3:51 PM 78.1 °F - 62.1 °F 58% 30.00 in 10.0 mi SSE 11.5 mph - N/A   Partly Cloudy
4:51 PM 75.2 °F - 60.8 °F 61% 30.01 in 10.0 mi South 11.5 mph - N/A   Partly Cloudy
6:51 PM 72.0 °F - 60.1 °F 66% 30.03 in 10.0 mi SSW 5.8 mph - N/A   Scattered Clouds
7:51 PM 68.0 °F - 59.0 °F 73% 30.04 in 10.0 mi South 5.8 mph - N/A   Scattered Clouds
8:51 PM 68.0 °F - 59.0 °F 73% 30.05 in 10.0 mi Calm Calm - N/A   Partly Cloudy
9:51 PM 64.9 °F - 59.0 °F 81% 30.05 in 10.0 mi Calm Calm - N/A   Partly Cloudy
10:51 PM 64.4 °F - 59.0 °F 83% 30.06 in 10.0 mi Calm Calm - N/A   Partly Cloudy
11:51 PM 63.0 °F - 60.1 °F 90% 30.06 in 10.0 mi Calm Calm - N/A   Partly Cloudy